This demonstration page uses our WeatherBlox Daily Observations layout. Learn more.

Left ArrowRight Arrow

Hourly Observations for September 3, 2019

Temp ( °F °C ) Dew Point ( °F °C ) Humidity (%) Winds ( mph kmh ) Pressure ( in mb ) Visibility ( mi km ) Precip ( " mm )
12:54 am 00:54 Clear 79 26.1 70 21.1 74 74 SSW 14 22 29.81 1009 10 16 0.00 0.00
1:54 am 01:54 Clear 78 25.6 69 20.6 74 74 SSW 15 24 29.80 1009 10 16 0.00 0.00
2:54 am 02:54 Clear 78 25.6 69 20.6 74 74 SSW 17 28 29.80 1009 10 16 0.00 0.00
3:54 am 03:54 Clear 77 25 69 20.6 77 77 SSW 16 26 29.79 1009 10 16 0.00 0.00
4:54 am 04:54 Clear 76 24.4 68 20 77 77 SSW 14 22 29.80 1009 10 16 0.00 0.00
5:54 am 05:54 Clear 76 24.4 67 19.4 74 74 SW 13 20 29.83 1010 10 16 0.00 0.00
6:54 am 06:54 Clear 71 21.7 66 18.9 84 84 Calm 29.87 1012 10 16 0.00 0.00
7:54 am 07:54 Sunny 74 23.3 67 19.4 79 79 VRB 3 6 29.87 1011 10 16 0.00 0.00
8:54 am 08:54 Sunny 77 25 68 20 74 74 WSW 6 9 29.88 1012 10 16 0.00 0.00
9:54 am 09:54 Sunny 81 27.2 68 20 65 65 W 6 9 29.90 1012 10 16 0.00 0.00
10:54 am 10:54 Sunny 84 28.9 70 21.1 63 63 NNW 7 11 29.91 1013 10 16 0.00 0.00
11:54 am 11:54 Sunny 85 29.4 72 22.2 65 65 N 7 11 29.91 1013 10 16 0.00 0.00
12:54 pm 12:54 Sunny 88 31.1 70 21.1 55 55 NNE 14 22 29.93 1014 10 16 0.00 0.00
1:54 pm 13:54 Sunny 87 30.6 63 17.2 45 45 NNE 13 20 29.94 1014 10 16 0.00 0.00
2:54 pm 14:54 Sunny 87 30.6 68 20 53 53 NNE 15 24 29.95 1014 10 16 0.00 0.00
3:54 pm 15:54 Sunny 88 31.1 60 15.6 39 39 NNE 14 22 29.96 1014 10 16 0.00 0.00
4:54 pm 16:54 Sunny 86 30 63 17.2 46 46 N 13 20 29.97 1015 10 16 0.00 0.00
5:54 pm 17:54 Sunny 83 28.3 64 17.8 53 53 N 9 15 29.98 1015 10 16 0.00 0.00
6:54 pm 18:54 Sunny 80 26.7 65 18.3 60 60 N 9 15 30.00 1016 10 16 0.00 0.00
7:54 pm 19:54 Sunny 74 23.3 62 16.7 67 67 N 8 13 30.02 1017 10 16 0.00 0.00
8:54 pm 20:54 Clear 68 20 61 16.1 78 78 N 8 13 30.04 1017 10 16 0.00 0.00
9:54 pm 21:54 Clear 70 21.1 58 14.4 66 66 NNW 7 11 30.06 1018 10 16 0.00 0.00
10:54 pm 22:54 Clear 67 19.4 58 14.4 73 73 NNW 7 11 30.08 1019 10 16 0.00 0.00
11:54 pm 23:54 Clear 62 16.7 58 14.4 86 86 N 6 9 30.09 1019 10 16 0.00 0.00

Powered by AerisWeather